HST 1 20580U 90037B 26032.98309778 .00007402 00000+0 24825-3 0 9994 2 20580 28.4672 283.4789 0002010 78.1649 281.9172 15.28901089767840 POLAR 1 23802U 96013A 26032.47796912 .00000248 00000+0 00000+0 0 9994 2 23802 79.6968 228.5940 6332951 213.6691 82.0038 1.29845968143099 SWAS 1 25560U 98071A 26033.52782026 .00003066 00000+0 20269-3 0 9995 2 25560 69.8945 214.5103 0002822 121.4807 238.6633 15.08513458476956 CXO 1 25867U 99040B 26034.50897227 .00000739 00000+0 00000+0 0 9992 2 25867 54.0018 120.6888 8050674 310.8579 0.1951 0.37804724 16822 XMM-NEWTON 1 25989U 99066A 26031.72532401 .00000094 00000+0 00000+0 0 9990 2 25989 65.1743 284.7836 4724780 67.3227 359.9893 0.50131279 22321 TERRA 1 25994U 99068A 26033.60042415 .00000502 00000+0 11142-3 0 9995 2 25994 97.9666 88.3624 0001093 315.3686 206.8834 14.60974514389956 CLUSTER II-FM7 (SAMBA) 1 26410U 00041A 26023.07807862 .00004677 00000+0 00000+0 0 9991 2 26410 148.3592 29.7174 8835954 245.6118 359.2301 0.44786329 19664 CLUSTER II-FM8 (TANGO) 1 26464U 00045B 26019.78457485 .00005071 00000+0 00000+0 0 9998 2 26464 148.5838 29.9991 8833034 245.7591 359.3805 0.44425532 19644 ODIN 1 26702U 01007A 26033.57084386 .00041498 00000+0 61001-3 0 9996 2 26702 97.4138 68.2520 0001484 306.8375 53.2743 15.55366537368370 TIMED 1 26998U 01055B 26033.44621656 .00001880 00000+0 17594-3 0 9998 2 26998 74.0696 146.2474 0001947 315.9493 44.1536 14.94897433310684 CORIOLIS 1 27640U 03001A 26033.46613587 .00000145 00000+0 89086-4 0 9991 2 27640 98.7152 42.3961 0013096 238.8968 121.0924 14.19897679195107 SORCE 1 27651U 03004A 26033.14956392 .00003283 00000+0 25149-3 0 9990 2 27651 39.9919 311.6320 0016372 166.6403 193.4827 15.02787257251572 MOST 1 27843U 03031D 26033.47047824 .00000091 00000+0 61950-4 0 9995 2 27843 98.7075 43.0602 0008802 283.1516 76.8678 14.21288755171577 SCISAT 1 1 27858U 03036A 26033.49593672 .00000775 00000+0 10412-3 0 9990 2 27858 73.9290 78.9243 0007148 186.1036 174.0054 14.81240701211508 SWIFT 1 28485U 04047A 26033.57750185 .00061298 00000+0 83561-3 0 9995 2 28485 20.5535 133.7400 0002641 230.7539 129.2670 15.55775956165788 HINODE (SOLAR-B) 1 29479U 06041A 26033.47937763 .00000764 00000+0 14022-3 0 9990 2 29479 98.0636 51.5777 0017433 0.0312 0.0891 14.68410373 35105 SHIJIAN-6 02A (SJ-6 02A) 1 29505U 06046A 26033.58355098 .00010742 00000+0 57589-3 0 9994 2 29505 97.6554 73.6742 0001898 229.1339 130.9729 15.15163925 51873 SHIJIAN-6 02B (SJ-6 02B) 1 29506U 06046B 26033.63061008 .00002491 00000+0 20054-3 0 9995 2 29506 97.6987 63.6717 0013236 153.4989 206.6914 15.00814392 50550 FGRST (GLAST) 1 33053U 08029A 26033.37256740 .00004231 00000+0 16072-3 0 9999 2 33053 25.5832 59.9813 0008594 173.9311 186.1332 15.23035178975254 SDO 1 36395U 10005A 26033.15753127 -.00000091 00000+0 00000+0 0 9996 2 36395 34.3665 88.3951 0000722 125.3144 233.1380 1.00276361 58706 CRYOSAT 2 1 36508U 10013A 26033.61857319 .00000166 00000+0 40364-4 0 9994 2 36508 92.0225 244.7181 0002557 83.2998 276.8500 14.51901979838552 X-SAT 1 37389U 11015C 26033.56938096 .00000328 00000+0 15682-3 0 9995 2 37389 98.3364 17.1112 0014607 22.7458 337.4366 14.25156757768505 GCOM-W1 (SHIZUKU) 1 38337U 12025A 26033.59909689 .00000720 00000+0 16985-3 0 9993 2 38337 98.2269 336.1472 0001397 80.8172 92.0917 14.57127033729430 NUSTAR 1 38358U 12031A 26033.66670139 .00004914 00000+0 26210-3 0 9997 2 38358 6.0275 322.0770 0009680 270.1185 99.3190 15.07202544 1302 NEOSSAT 1 39089U 13009D 26033.50298867 .00000205 00000+0 85536-4 0 9998 2 39089 98.4104 216.7594 0009939 290.0952 69.9164 14.35764857677418 BRITE-AUSTRIA 1 39091U 13009F 26033.49863630 .00000238 00000+0 95836-4 0 9995 2 39091 98.3918 216.2927 0009104 284.0125 76.0050 14.36473492677716 IRIS 1 39197U 13033A 26033.53557574 .00001503 00000+0 17944-3 0 9990 2 39197 97.9390 233.1795 0025460 41.6937 318.6212 14.85521655680385 HISAKI (SPRINT-A) 1 39253U 13049A 26033.57166841 .00000092 00000+0 38962-4 0 9993 2 39253 29.7180 184.3963 0136873 5.3912 354.8105 13.55527312613148 CASSIOPE 1 39265U 13055A 26033.60120454 .00045001 -42689-6 56367-3 0 9991 2 39265 80.9150 229.0315 0326545 153.1175 208.7406 15.15700724647219 STSAT-3 1 39422U 13066G 26033.56955190 .00003046 00000+0 23762-3 0 9995 2 39422 97.6073 5.8811 0014395 123.3379 236.9226 15.01825652663995 SWARM B 1 39451U 13067A 26033.55866081 .00004610 00000+0 17021-3 0 9996 2 39451 87.7433 23.1367 0002857 99.2119 260.9453 15.27496659662682 SWARM A 1 39452U 13067B 26033.56326765 .00012070 00000+0 23108-3 0 9990 2 39452 87.3345 106.1587 0002846 94.0580 266.1005 15.47903498685402 SWARM C 1 39453U 13067C 26033.62781955 .00012159 00000+0 23275-3 0 9997 2 39453 87.3341 104.7180 0002844 93.7285 266.4300 15.47907346685371 BRITE-CA1 (TORONTO) 1 40020U 14033L 26033.35954546 .00000982 00000+0 15588-3 0 9990 2 40020 97.9522 164.9710 0078754 349.5216 10.4346 14.72366118622378 OCO 2 1 40059U 14035A 26033.56337937 .00000603 00000+0 14387-3 0 9992 2 40059 98.2273 336.8561 0001550 74.5912 285.5458 14.57131354616444 BRITE-PL2 (HEWELIUSZ) 1 40119U 14049B 26033.24482917 .00002981 00000+0 28488-3 0 9996 2 40119 97.8981 144.3785 0013969 192.1473 167.9412 14.93976636621290 MMS 1 1 40482U 15011A 26033.66670139 -.00002044 00000+0 00000+0 0 9997 2 40482 70.3023 350.6415 8448606 164.5611 257.7304 0.28304348 1370 MMS 2 1 40483U 15011B 26033.66670139 -.00002045 00000+0 00000+0 0 9999 2 40483 70.2988 350.6325 8450180 164.5772 257.6954 0.28304352 1373 MMS 3 1 40484U 15011C 26033.66670139 -.00002044 00000+0 00000+0 0 9999 2 40484 70.3047 350.6486 8450057 164.5729 257.6916 0.28304370 1372 MMS 4 1 40485U 15011D 26033.66670139 -.00002045 00000+0 00000+0 0 9991 2 40485 70.3055 350.6403 8451335 164.5593 257.7265 0.28304318 1370 ASTROSAT 1 40930U 15052A 26033.53187561 .00002230 00000+0 19110-3 0 9990 2 40930 5.9981 44.3993 0008595 271.7256 88.1888 14.82187205559816 DAMPE 1 41173U 15078A 26033.62423986 .00001352 00000+0 48617-4 0 9991 2 41173 97.4558 38.4622 0011621 185.5992 174.5121 15.30365063563963 PISAT 1 41784U 16059B 26033.46704894 .00001346 00000+0 23807-3 0 9997 2 41784 97.8174 39.7436 0027695 276.4793 83.3260 14.68674069499961 HXMT (HUIYAN) 1 42758U 17034A 26033.62277206 .00005486 00000+0 28109-3 0 9992 2 42758 43.0122 211.5607 0031629 10.5488 349.6017 15.16989248477213 FLYING LAPTOP 1 42831U 17042G 26033.63172791 .00004176 00000+0 33720-3 0 9997 2 42831 97.4209 194.8880 0015279 217.3753 142.6409 15.00266610466279 ZHANGHENG 1-01 (CSES-1) 1 43194U 18015C 26033.65159683 .00011051 00000+0 49899-3 0 9992 2 43194 97.6693 196.7443 0016338 24.4969 335.7039 15.21036978444196 SALSAT 1 46495U 20068K 26033.50211569 .00009220 00000+0 34576-3 0 9997 2 46495 97.8821 28.6199 0012025 60.4103 299.8331 15.27419284294782 IXPE 1 49954U 21121A 26033.58335648 .00012051 00000+0 68861-3 0 9994 2 49954 0.2288 254.8303 0006927 205.6622 265.5315 15.08712691 5478